When you browse on this site, cookies collect data to enhance your experience and personalize the content and advertising you see.
Visit our Privacy Policy to learn more. By continuing to use the site, you agree to this use of cookies and data.
  • In Deutschland
  • Länderverzeichnis
  • Für 7 Tage
  • Wassertemperatur
  • Satellitenkarten
  • Wetterkarte
  • Widgets
  • user-avatar
    Anmelden

    Stündliche Wetter Bad Wiessee

    Heute, 21 Januar, Montag

    Zeit Temperatur Niederschläge Wind Luftdruck Luftfeuchtigkeit
    00:00 -10°C° 0 mm 1 m/S 659 mmHg 85%
    01:00 -9°C° 0 mm 1 m/S 659 mmHg 85%
    02:00 -10°C° 0 mm 1 m/S 659 mmHg 86%
    03:00 -10°C° 0 mm 1 m/S 659 mmHg 86%
    04:00 -10°C° 0 mm 1 m/S 659 mmHg 86%
    05:00 -10°C° 0 mm 1 m/S 659 mmHg 86%
    06:00 -10°C° 0 mm 1 m/S 659 mmHg 87%
    07:00 -9°C° 0 mm 1 m/S 659 mmHg 87%
    08:00 -8°C° 0 mm 0 m/S 660 mmHg 86%
    09:00 -7°C° 0 mm 0 m/S 660 mmHg 86%
    10:00 -6°C° 0 mm 0 m/S 660 mmHg 85%
    11:00 -5°C° 0 mm 0 m/S 660 mmHg 85%
    12:00 -4°C° 0 mm 0 m/S 660 mmHg 84%
    13:00 -2°C° 0 mm 1 m/S 660 mmHg 84%
    14:00 -3°C° 0 mm 1 m/S 660 mmHg 87%
    15:00 -3°C° 0 mm 1 m/S 660 mmHg 89%
    16:00 -4°C° 0 mm 1 m/S 659 mmHg 92%
    17:00 -5°C° 0 mm 0 m/S 659 mmHg 93%
    18:00 -6°C° 0 mm 0 m/S 659 mmHg 94%
    19:00 -7°C° 0 mm 0 m/S 659 mmHg 95%
    20:00 -7°C° 0 mm 0 m/S 659 mmHg 95%
    21:00 -8°C° 0 mm 0 m/S 659 mmHg 94%
    22:00 -8°C° 0 mm 1 m/S 659 mmHg 94%
    23:00 -8°C° 0 mm 1 m/S 659 mmHg 93%

    Morgen, 22 Januar, Dienstag

    Zeit Temperatur Niederschläge Wind Luftdruck Luftfeuchtigkeit
    00:00 -8°C° 0 mm 1 m/S 659 mmHg 92%
    01:00 -9°C° 0 mm 1 m/S 659 mmHg 91%
    02:00 -9°C° 0 mm 1 m/S 658 mmHg 90%
    03:00 -10°C° 0 mm 1 m/S 657 mmHg 89%
    04:00 -11°C° 0 mm 1 m/S 657 mmHg 88%
    05:00 -11°C° 0 mm 1 m/S 656 mmHg 87%
    06:00 -11°C° 0 mm 1 m/S 656 mmHg 86%
    07:00 -11°C° 0 mm 1 m/S 655 mmHg 85%
    08:00 -10°C° 0 mm 1 m/S 655 mmHg 84%
    09:00 -9°C° 0 mm 1 m/S 655 mmHg 83%
    10:00 -7°C° 0 mm 1 m/S 655 mmHg 82%
    11:00 -6°C° 0 mm 1 m/S 654 mmHg 80%
    12:00 -3°C° 0 mm 1 m/S 654 mmHg 79%
    13:00 -3°C° 0 mm 0 m/S 653 mmHg 78%
    14:00 -2°C° 0 mm 1 m/S 653 mmHg 82%
    15:00 -3°C° 0 mm 1 m/S 652 mmHg 87%
    16:00 -4°C° 0 mm 1 m/S 651 mmHg 91%
    17:00 -6°C° 0 mm 1 m/S 650 mmHg 92%
    18:00 -8°C° 0 mm 1 m/S 650 mmHg 93%
    19:00 -9°C° 0 mm 1 m/S 649 mmHg 94%
    20:00 -9°C° 0 mm 1 m/S 649 mmHg 92%
    21:00 -10°C° 0 mm 1 m/S 649 mmHg 90%
    22:00 -10°C° 0 mm 1 m/S 648 mmHg 87%
    23:00 -10°C° 0 mm 1 m/S 648 mmHg 86%

    übermorgen, 23 Januar, Mittwoch

    Zeit Temperatur Niederschläge Wind Luftdruck Luftfeuchtigkeit
    00:00 -10°C° 0 mm 1 m/S 647 mmHg 85%
    01:00 -10°C° 0 mm 1 m/S 647 mmHg 84%
    02:00 -10°C° 0 mm 1 m/S 646 mmHg 83%
    03:00 -10°C° 0 mm 1 m/S 646 mmHg 83%
    04:00 -11°C° 0 mm 1 m/S 646 mmHg 83%
    05:00 -10°C° 0 mm 1 m/S 645 mmHg 82%
    06:00 -10°C° 0 mm 1 m/S 645 mmHg 82%
    07:00 -10°C° 0 mm 1 m/S 645 mmHg 82%
    08:00 -9°C° 0 mm 1 m/S 645 mmHg 81%
    09:00 -8°C° 0 mm 0 m/S 646 mmHg 81%
    10:00 -7°C° 0 mm 0 m/S 646 mmHg 80%
    11:00 -6°C° 0 mm 0 m/S 646 mmHg 79%
    12:00 -5°C° 0 mm 0 m/S 646 mmHg 78%
    13:00 -3°C° 0 mm 1 m/S 646 mmHg 77%
    14:00 -4°C° 0 mm 1 m/S 646 mmHg 81%
    15:00 -4°C° 0 mm 1 m/S 646 mmHg 86%
    16:00 -6°C° 0 mm 1 m/S 646 mmHg 90%
    17:00 -7°C° 0 mm 1 m/S 646 mmHg 91%
    18:00 -8°C° 0 mm 0 m/S 646 mmHg 93%
    19:00 -9°C° 0 mm 0 m/S 647 mmHg 94%
    20:00 -10°C° 0 mm 0 m/S 647 mmHg 94%
    21:00 -10°C° 0 mm 0 m/S 647 mmHg 94%
    22:00 -10°C° 0 mm 1 m/S 648 mmHg 93%
    23:00 -11°C° 0 mm 1 m/S 648 mmHg 93%

    24 Januar, Donnerstag

    Zeit Temperatur Niederschläge Wind Luftdruck Luftfeuchtigkeit
    00:00 -11°C° 0 mm 1 m/S 648 mmHg 92%
    01:00 -11°C° 0 mm 1 m/S 649 mmHg 92%
    02:00 -11°C° 0 mm 1 m/S 649 mmHg 92%
    03:00 -11°C° 0 mm 1 m/S 649 mmHg 92%
    04:00 -11°C° 0 mm 1 m/S 650 mmHg 92%
    05:00 -11°C° 0 mm 1 m/S 650 mmHg 92%
    06:00 -10°C° 0 mm 1 m/S 651 mmHg 91%
    07:00 -10°C° 0 mm 1 m/S 651 mmHg 91%
    08:00 -10°C° 0 mm 1 m/S 652 mmHg 90%
    09:00 -9°C° 0 mm 1 m/S 652 mmHg 89%
    10:00 -8°C° 0 mm 1 m/S 653 mmHg 88%
    11:00 -7°C° 0.1 mm 1 m/S 653 mmHg 87%
    12:00 -6°C° 0.1 mm 1 m/S 654 mmHg 86%
    13:00 -6°C° 0.1 mm 1 m/S 654 mmHg 86%
    14:00 -6°C° 0.1 mm 1 m/S 654 mmHg 88%
    15:00 -6°C° 0.1 mm 1 m/S 654 mmHg 89%
    16:00 -6°C° 0.1 mm 1 m/S 654 mmHg 91%
    17:00 -7°C° 0.1 mm 1 m/S 655 mmHg 93%
    18:00 -7°C° 0.1 mm 1 m/S 656 mmHg 94%
    19:00 -8°C° 0.1 mm 0 m/S 656 mmHg 96%
    20:00 -8°C° 0 mm 1 m/S 657 mmHg 95%
    21:00 -9°C° 0 mm 1 m/S 657 mmHg 95%
    22:00 -9°C° 0 mm 1 m/S 657 mmHg 95%
    23:00 -9°C° 0 mm 1 m/S 658 mmHg 94%

    25 Januar, Freitag

    Zeit Temperatur Niederschläge Wind Luftdruck Luftfeuchtigkeit
    00:00 -9°C° 0 mm 1 m/S 658 mmHg 93%
    01:00 -10°C° 0 mm 1 m/S 658 mmHg 93%
    02:00 -10°C° 0 mm 1 m/S 658 mmHg 92%
    03:00 -10°C° 0 mm 1 m/S 658 mmHg 91%
    04:00 -10°C° 0 mm 1 m/S 658 mmHg 91%
    05:00 -10°C° 0 mm 1 m/S 658 mmHg 90%
    06:00 -11°C° 0 mm 1 m/S 658 mmHg 89%
    07:00 -11°C° 0 mm 1 m/S 658 mmHg 89%
    08:00 -10°C° 0 mm 1 m/S 659 mmHg 87%
    09:00 -9°C° 0 mm 1 m/S 659 mmHg 86%
    10:00 -7°C° 0 mm 1 m/S 660 mmHg 84%
    11:00 -6°C° 0 mm 1 m/S 660 mmHg 83%
    12:00 -4°C° 0 mm 1 m/S 660 mmHg 82%
    13:00 -3°C° 0 mm 1 m/S 660 mmHg 81%
    14:00 -3°C° 0 mm 1 m/S 659 mmHg 83%
    15:00 -3°C° 0 mm 1 m/S 659 mmHg 85%
    16:00 -3°C° 0 mm 1 m/S 659 mmHg 87%
    17:00 -6°C° 0 mm 1 m/S 659 mmHg 89%
    18:00 -7°C° 0 mm 1 m/S 659 mmHg 90%
    19:00 -8°C° 0 mm 1 m/S 659 mmHg 92%
    20:00 -9°C° 0 mm 1 m/S 659 mmHg 90%
    21:00 -10°C° 0 mm 2 m/S 659 mmHg 88%
    22:00 -12°C° 0 mm 2 m/S 659 mmHg 86%
    23:00 -10°C° 0 mm 2 m/S 659 mmHg 83%

    26 Januar, Samstag

    Zeit Temperatur Niederschläge Wind Luftdruck Luftfeuchtigkeit
    00:00 -9°C° 0 mm 2 m/S 659 mmHg 79%
    01:00 -9°C° 0 mm 2 m/S 659 mmHg 76%
    02:00 -8°C° 0.1 mm 2 m/S 659 mmHg 78%
    03:00 -7°C° 0.1 mm 2 m/S 658 mmHg 80%
    04:00 -7°C° 0.1 mm 2 m/S 658 mmHg 82%
    05:00 -6°C° 0.3 mm 2 m/S 658 mmHg 85%
    06:00 -5°C° 0.3 mm 2 m/S 658 mmHg 88%
    07:00 -5°C° 0.3 mm 2 m/S 658 mmHg 92%
    08:00 -4°C° 0.5 mm 2 m/S 658 mmHg 92%
    09:00 -3°C° 0.5 mm 2 m/S 658 mmHg 92%
    10:00 -3°C° 0.5 mm 2 m/S 658 mmHg 92%
    11:00 -2°C° 0.1 mm 2 m/S 657 mmHg 93%
    12:00 +1°C° 0.1 mm 1 m/S 657 mmHg 94%
    13:00 +2°C° 0.1 mm 1 m/S 656 mmHg 95%
    14:00 +1°C° 0 mm 1 m/S 656 mmHg 96%
    15:00 +1°C° 0 mm 1 m/S 655 mmHg 97%
    16:00 0°C° 0 mm 0 m/S 655 mmHg 98%
    17:00 0°C° 0.1 mm 1 m/S 654 mmHg 96%
    18:00 0°C° 0.1 mm 1 m/S 654 mmHg 95%
    19:00 -1°C° 0.1 mm 1 m/S 654 mmHg 93%
    20:00 -1°C° 0.1 mm 1 m/S 653 mmHg 93%
    21:00 -2°C° 0.1 mm 1 m/S 653 mmHg 92%
    22:00 -2°C° 0.1 mm 1 m/S 652 mmHg 92%
    23:00 -2°C° 0.2 mm 1 m/S 652 mmHg 92%
    Mehr zeigen